www.pogodaiklimat.ru

Погода и климат >> Архив погоды >> Пакистан >> Сахивал


ПОГОДА в Сахивале

  • Прогноз погоды в Сахивале
  • Монитор погоды в Сахивале

АРХИВ ПОГОДЫ в Сахивале

Время (UTC), дата Ветер
(напр.,м/с)
 
Видим.   Явления Облачность Т
(С)
Тd
(С)
f
(%)
Тe
(С)
Тes
(С)
Комфортность P
(гПа)
Po
(гПа)
Тmin
(С)
Tmax
(С)
R
(мм)
R24
(мм)
S
(см)
18 9.06 штиль 0 4000 м мгла ясно +35.0 +21.1 44 +42 +42 опасность
перегрева
996.2 977.6
21 9.06 штиль 0 4000 м дым ясно +31.0 +21.4 57 +39 +39 очень
душно
997.0 978.2
00 10.06 штиль 0 4000 м дым 4/0
[Ac trans]
+28.0 +22.1 70 +36 +36 очень
душно
997.4 978.4
03 10.06 Ю 3 4000 м мгла 3/0
[Ac trans]
+32.0 +20.0 49 +38 +43 очень
душно
998.1 979.3 +27.5
06 10.06 Ю 3 4000 м мгла ясно +41.0 +16.6 24 +43 +60 опасность
перегрева
996.1 978.1
09 10.06 Ю 3 4000 м мгла ясно +45.0 +13.7 16 +45 +60 опасность
перегрева
994.7 976.8
15 10.06 штиль 0 4000 м мгла ясно +41.0 +18.8 28 +45 +45 опасность
перегрева
993.5 975.4
18 10.06 штиль 0 4000 м мгла ясно +34.0 +20.8 46 +41 +41 опасность
перегрева
993.8 975.2
21 10.06 штиль 0 4000 м дым ясно +30.5 +21.7 59 +39 +39 очень
душно
995.2 976.4
00 11.06 СЗ 2 4000 м мгла 5/0
[]
+29.0 +21.6 64 +37 +37 очень
душно
994.6 975.6
03 11.06 Ю 1 4000 м мгла 8/3 1200 м
[Sc Ac trans]
+35.0 +20.2 42 +41 +45 опасность
перегрева
996.3 977.7 +28.5
06 11.06 Ю 8 4000 м пыльный позёмок 8/3 1200 м
[Sc Ac trans]
+38.0 +20.4 36 +44 +45 опасность
перегрева
995.1 976.9
09 11.06 ЮЗ 6 2000 м пыльный позёмок 3/0
[Ac trans]
+41.5 +18.5 27 +45 +51 опасность
перегрева
994.1 976.0
12 11.06 ЮЗ 3 4000 м мгла ясно +42.0 +18.1 25 +45 +48 опасность
перегрева
992.5 974.5 +43.2
15 11.06 штиль 0 4000 м мгла ясно +38.5 +22.9 41 +48 +48 опасность
перегрева
991.8 973.6
18 11.06 штиль 0 4000 м мгла ясно +34.0 +21.6 48 +42 +42 опасность
перегрева
992.6 974.0
21 11.06 штиль 0 4000 м дым ясно +31.0 +21.4 57 +39 +39 очень
душно
991.7 973.0
00 12.06 СВ 4 4000 м дым ясно +30.0 +20.3 56 +37 +37 очень
душно
994.7 975.9
03 12.06 СВ 4 1000 м мгла ясно +30.5 +16.2 42 +34 +38 очень
душно
998.0 979.2 +29.5
06 12.06 СЗ 6 1000 м пыльный позёмок ясно +34.5 +18.6 39 +39 +47 очень
душно
998.5 979.9
09 12.06 СЗ 3 2000 м мгла ясно +38.5 +19.2 33 +43 +58 опасность
перегрева
997.1 978.8
12 12.06 СЗ 4 2000 м мгла ясно +39.0 +18.9 31 +43 +46 опасность
перегрева
995.6 977.4 +39.5
15 12.06 СЗ 3 4000 м мгла ясно +35.5 +19.0 38 +40 +40 очень
душно
996.4 978.0
18 12.06 СЗ 3 4000 м мгла ясно +33.0 +19.5 45 +39 +39 очень
душно
997.6 979.0
21 12.06 СЗ 2 4000 м дым ясно +31.0 +19.7 51 +37 +37 очень
душно
997.1 978.3
00 13.06 СЗ 2 4000 м дым ясно +28.0 +18.8 57 +33 +33 очень
душно
998.4 979.4
03 13.06 СЗ 4 4000 м дым ясно +30.0 +22.0 62 +39 +43 очень
душно
1000.4 981.6 +27.0
06 13.06 СВ 2 4000 м мгла ясно +37.0 +22.8 44 +46 +66 опасность
перегрева
1000.8 982.4
09 13.06 СВ 2 4000 м мгла ясно +40.0 +20.3 32 +45 +63 опасность
перегрева
999.7 981.4
12 13.06 штиль 0 4000 м мгла ясно +39.0 +18.9 31 +43 +49 опасность
перегрева
998.2 980.0 +41.0
15 13.06 штиль 0 4000 м мгла ясно +37.0 +19.1 35 +42 +42 опасность
перегрева
998.2 979.8
18 13.06 штиль 0 4000 м мгла ясно +34.0 +18.9 41 +39 +39 очень
душно
999.2 980.6
21 13.06 штиль 0 4000 м дым ясно +31.0 +19.7 51 +37 +37 очень
душно
998.8 980.0
00 14.06 штиль 0 4000 м дым ясно +28.0 +18.5 56 +33 +33 очень
душно
1000.1 981.1
03 14.06 штиль 0 4000 м мгла ясно +32.0 +18.2 44 +37 +46 очень
душно
1000.7 981.9 +26.6
06 14.06 штиль 0 4000 м мгла ясно +40.0 +18.3 28 +43 +71 опасность
перегрева
1000.0 981.8 +26.6
09 14.06 СВ 2 4000 м мгла ясно +43.0 +16.4 22 +45 +63 опасность
перегрева
998.4 980.3
12 14.06 штиль 0 4000 м мгла ясно +42.0 +15.9 22 +43 +49 опасность
перегрева
996.0 977.6 +44.0
15 14.06 штиль 0 4000 м мгла ясно +39.0 +17.9 29 +42 +42 опасность
перегрева
996.6 978.3
18 14.06 штиль 0 4000 м дым ясно +33.0 +21.3 50 +41 +41 опасность
перегрева
997.5 978.9
21 14.06 штиль 0 4000 м дым ясно +30.0 +19.4 53 +36 +36 очень
душно
997.3 978.5
00 15.06 Ю 1 4000 м дым ясно +29.0 +19.1 55 +34 +34 очень
душно
998.0 978.6
03 15.06 штиль 0 4000 м дым ясно +33.0 +21.3 50 +41 +51 опасность
перегрева
998.9 980.5 +28.6
06 15.06 Ю 2 4000 м мгла ясно +38.0 +21.4 38 +45 +65 опасность
перегрева
999.0 980.8
09 15.06 ЮЗ 8 2000 м пыльный позёмок ясно +41.5 +23.3 36 +51 +54 опасность
перегрева
996.3 978.2
12 15.06 ЮЗ 5 2000 м мгла ясно +41.5 +23.3 36 +51 +53 опасность
перегрева
994.2 975.8 +42.5
18 15.06 СВ 4 2000 м мгла 4/0
[Ac trans]
+31.5 +19.4 49 +37 +37 очень
душно
998.3 979.1
21 15.06 СЗ 9 2000 м пыльный позёмок 10/5 1200 м
[Sc Ac As]
+29.0 +19.9 58 +35 +35 очень
душно
998.8 979.9
00 16.06 штиль 0 4000 м дым 10/5 1200 м
[Sc Ac As]
+28.0 +20.5 64 +35 +35 очень
душно
999.4 980.0
03 16.06 ЮЗ 5 4000 м дым ясно +30.0 +19.4 53 +36 +39 очень
душно
1000.5 981.3 +26.5
06 16.06 ЮЗ 2 4000 м мгла 4/0
[Ac trans]
+34.0 +20.8 46 +41 +56 опасность
перегрева
1001.8 982.8
09 16.06 СЗ 3 4000 м мгла 5/5 1200 м
[Sc]
+37.0 +23.6 46 +47 +55 опасность
перегрева
999.5 981.1
12 16.06 ЮЗ 1 4000 м мгла ясно +37.5 +23.4 45 +48 +53 опасность
перегрева
997.3 978.5 +38.5

 

Местоположение метеостанции Сахивал (Пакистан): широта 30.66 долгота 73.02 высота над уровнем моря 169 м.

В архиве по умолчанию представлена погода в Сахивале за последнюю неделю. Архивные данные за месяц целиком и за предыдущие месяцы, начиная с января 2011 года, Вы можете получить, выбрав интересующий диапазон дат из раскрывающегося списка и нажав кнопку "Ввод!".


*Определитесь, кто Вы:
робот инопланетянин человек

Внимание! Время в таблицах - всемирное. Для получения местного времени необходимо прибавить поправку, которая равна 5 ч.

Смотрите также архив погоды в соседних городах и на ближайших метеорологических станциях:

Погода в Окаре (Пакистан) (42 км)
Погода в Тоба Тек Сингх (Пакистан) (63 км)
Погода на Авиабазе Raifiqui (Пакистан) (80 км)
Погода в Бахавалнагаре (Пакистан) (82 км)
Погода в Фейсалабаде (Пакистан) (86 км)
Погода в Джанге (Пакистан) (95 км)
Погода в Ханевале (Пакистан) (115 км)
Погода в Шри-Ганганагаре (Раджастхан, Индия) (117 км)
Погода в Касуре (Пакистан) (147 км)
Погода в Саргодхе (Пакистан) (158 км)

Пояснения к столбцам:

Ветер - указаны скорость ветра в м/с - средняя за 10 мин, порывы в срок и между сроками (в фигурных скобках) и направление, откуда дует ветер: С - северный, СВ - северо-восточный, В - восточный, ЮВ - юго-восточный, Ю - южный, ЮЗ - юго-западный, З - западный, СЗ - северо-западный.
Видимость - горизонтальная дальность видимости в метрах или километрах. При видимости от 1 до 10 км при отсутствии осадков обычно наблюдается дымка, при ухудшении видимости до 1 км и менее - туман. В сухую погоду видимость может ухудшаться дымом, пылью или мглою.
Явления - указаны атмосферные явления, наблюдавшиеся в срок или в последний час перед сроком; фигурными скобками обозначены явления, наблюдавшиеся между сроками (за 1-3 часа до срока); квадратными скобками обозначены град или гололедные отложения с указанием их диаметра в мм.
Облачность - указаны через наклонную черту общая и нижняя облачность в баллах и высота нижней границы облаков в метрах; квадратными скобками обозначены формы облаков: Ci - перистые, Cs - перисто-слоистые, Cc - перисто-кучевые, Ac - высококучевые, As - высокослоистые, Sc - слоисто-кучевые, Ns - слоисто-дождевые, Cu - кучевые, Cb - кучево-дождевые. Подробнее классификацию облаков см. в Атласе облаков (PDF).
T - Температура воздуха - температура, измеренная на высоте 2 м над землей.
Td - Температура точки росы - температура, при понижении до которой содержащийся в воздухе водяной пар достигнет насыщения.
f - Относительная влажность воздуха - влажноcть воздуха, измеренная на высоте 2 м над землей.
Te - Эффективная температура - температура, которую ощущает одетый по сезону человек в тени. Характеристика душности погоды. При расчете учитывается влияние влажности воздуха и скорости ветра на теплоощущения человека.
Tes - Эффективная температура на солнце - температура, которую ощущает человек, с поправкой на солнечный нагрев. Характеристика знойности погоды. Зависит от высоты солнца над горизонтом, облачности и скорости ветра. Ночью, в пасмурную погоду, а также при ветре 12 м/с и более поправка равна нулю.
P - Атмосферное давление - приведенное к уровню моря атмосферное давление.
Po - Атмосферное давление - измеренное на уровне метеостанции атмосферное давление.
Tmin - Минимальная температура - минимум температуры воздуха на высоте 2 м над землей.
Tmax - Максимальная температура - максимум температуры воздуха на высоте 2 м над землей.
R - Количество осадков - Количество выпавших осадков за период времени, мм. При наведении курсора мыши на число - период времени, за который выпало указанное количество осадков.
R24 - Количество осадков - Количество выпавших осадков за 24 часа, мм.
S - Снежный покров - Высота снежного покрова, см. При наведении курсора мыши на число - состояние снежного покрова и степень покрытия местности в баллах.